This is the latest recevied weather packets stored in our database for station/object KC3ELT-10. If no packets are shown the sender has not sent any weather packets the latest 1 day(s).
| Time | Temp. | Humidity | Pressure | Rain* | Wind** | Luminosity | Snow |
|---|---|---|---|---|---|---|---|
| 1778016779 | 24.44° C | 40% | 1002.1 hPa | 0 mm | 2.24 m/s, 234° | - | - |
| 1778016479 | 24.44° C | 41% | 1002 hPa | 0 mm | 1.34 m/s, 185° | - | - |
| 1778016179 | 24.44° C | 40% | 1002 hPa | 0 mm | 0.89 m/s, 227° | - | - |
| 1778015879 | 24.44° C | 39% | 1002 hPa | 0 mm | 2.68 m/s, 184° | - | - |
| 1778015579 | 24.44° C | 41% | 1001.7 hPa | 0 mm | 5.81 m/s, 195° | - | - |
| 1778015279 | 24.44° C | 39% | 1001.7 hPa | 0 mm | 1.34 m/s, 162° | - | - |
| 1778014979 | 24.44° C | 39% | 1001.7 hPa | 0 mm | 4.02 m/s, 274° | - | - |
| 1778014679 | 24.44° C | 39% | 1001.7 hPa | 0 mm | 2.68 m/s, 257° | - | - |
| 1778014379 | 24.44° C | 39% | 1001.7 hPa | 0 mm | 3.13 m/s, 192° | - | - |
| 1778014079 | 24.44° C | 40% | 1001.7 hPa | 0 mm | 1.79 m/s, 200° | - | - |
| 1778013779 | 24.44° C | 39% | 1001.7 hPa | 0 mm | 2.68 m/s, 229° | - | - |
| 1778013479 | 25° C | 38% | 1001.7 hPa | 0 mm | 4.02 m/s, 278° | - | - |
| 1778013179 | 25° C | 38% | 1001.7 hPa | 0 mm | 1.79 m/s, 242° | - | - |
| 1778012879 | 25.56° C | 39% | 1001.8 hPa | 0 mm | 2.68 m/s, 219° | - | - |
| 1778012579 | 25° C | 39% | 1001.8 hPa | 0 mm | 1.79 m/s, 262° | - | - |
| 1778012279 | 25° C | 38% | 1001.8 hPa | 0 mm | 2.68 m/s, 205° | - | - |
| 1778011979 | 25° C | 37% | 1002 hPa | 0 mm | 3.13 m/s, 218° | - | - |
| 1778011679 | 25° C | 37% | 1002 hPa | 0 mm | 1.34 m/s, 188° | - | - |
| 1778011379 | 25° C | 36% | 1002 hPa | 0 mm | 0.89 m/s, 264° | - | - |
| 1778011079 | 25.56° C | 36% | 1001.7 hPa | 0 mm | 1.34 m/s, 204° | - | - |
| 1778010779 | 25.56° C | 36% | 1001.7 hPa | 0 mm | 4.47 m/s, 216° | - | - |
| 1778010479 | 25° C | 37% | 1001.7 hPa | 0 mm | 2.24 m/s, 271° | - | - |
| 1778010179 | 25° C | 36% | 1001.7 hPa | 0 mm | 4.47 m/s, 134° | - | - |
| 1778009879 | 25.56° C | 35% | 1001.7 hPa | 0 mm | 1.79 m/s, 231° | - | - |
| 1778009579 | 25.56° C | 37% | 1001.7 hPa | 0 mm | 2.68 m/s, 250° | - | - |
* Rain latest hour (hover to see other rain measurements)
** Current wind speed in m/s (hover to see current wind gust speed)